Terug naar catalogus

BREEZE-M DEB

TANK

ActiefHEO
NORAD 44309·DEBRIS·🇷🇺 Russia

Gelanceerd May 30, 2019 vanaf Baikonur Cosmodrome

Loading…

Volgende Passages (komende 24 uur)

TLE

VersSource: Space-Track

Epoch: Sep 14, 2026, 14:56 UTC

1 44309U 19031C   26257.62225311  .00003182  00000-0  75098-3 0  9994
2 44309  49.3972 227.2212 5544311  36.3199 350.8858  4.72393620122354

Volg BREEZE-M DEB in realtime met AllMySat

Download on the App Store